Home > Weather > Yekaterinburg > Past weeks

Flag for Russia Past Weather in Yekaterinburg, Russia — Yesterday and Last 2 Weeks

Now
59 °F

Sunny.


Feels Like: 57 °F
Forecast: 41 / 53 °F
Wind: 10 mph from West

Location: Ekaterinburg

Current Time: May 30, 2016 at 8:07:18 AM

Latest Report: May 30, 2016 at 7:30 AM


Visibility: 10 mi

Pressure: 29.71 "Hg

Humidity: 59%

Dew Point: 45 °F

Location of YekaterinburgLocation

Past Weather in Yekaterinburg — Graph

°F

Yekaterinburg Temperature Yesterday

Maximum temperature yesterday: 70 °F (at 4:00 PM)
Minimum temperature yesterday: 39 °F (at 2:30 AM)
Average temperature yesterday: 56 °F

High & Low Weather Summary for the Past Weeks

 TemperatureHumidityPressure
High84 °F (May 27, 4:00 PM)100% (May 24, 5:00 AM)30.36 "Hg (May 24, 5:00 AM)
Low23 °F (May 16, 4:00 AM)17% (May 19, 3:30 PM)29.71 "Hg (May 30, 6:00 AM)
Average61 °F52%30.13 "Hg
* Reported May 15 7:00 AM — May 30 7:00 AM, Yekaterinburg, Weather by CustomWeather, © 2016

Note: Actual official high and low records may vary slightly from our data, if they occured in-between our weather recording intervals... More about our weather records

Advertising

Yekaterinburg Weather History for the Previous 24 Hours

Scroll right to see more
 ConditionsComfort  
Time TempWeatherWind HumidityBarometerVisibility
7:00 AM
Mon, May 30
59 °FSunny.13 mph59%29.71 "Hg10 mi
6:30 AM59 °FSunny.10 mph55%29.71 "Hg10 mi
6:00 AM59 °FSunny.13 mph55%29.71 "Hg10 mi
5:30 AM57 °FSunny.10 mph59%29.74 "Hg10 mi
5:00 AM57 °FSunny.10 mph59%29.74 "Hg10 mi
4:30 AM57 °FSunny.13 mph59%29.74 "Hg10 mi
4:00 AM57 °FClear.8 mph59%29.77 "Hg10 mi
3:30 AM55 °FClear.8 mph63%29.77 "Hg10 mi
3:00 AM50 °FClear.6 mph76%29.80 "Hg10 mi
2:30 AM50 °FClear.6 mph76%29.80 "Hg10 mi
2:00 AM52 °FPassing clouds.3 mph67%29.80 "HgN/A
1:30 AM52 °FClear.6 mph67%29.83 "Hg10 mi
1:00 AM52 °FClear.6 mph72%29.83 "Hg10 mi
12:30 AM54 °FClear.8 mph63%29.83 "Hg10 mi
12:00 AM55 °FClear.10 mph63%29.86 "Hg10 mi
11:30 PM
Sun, May 29
55 °FClear.8 mph63%29.86 "Hg10 mi
11:00 PM57 °FClear.8 mph59%29.86 "Hg10 mi
10:30 PM61 °FClear.10 mph55%29.86 "Hg10 mi
10:00 PM57 °FClear.8 mph63%29.86 "Hg10 mi
9:30 PM61 °FSunny.8 mph55%29.89 "Hg10 mi
9:00 PM64 °FSunny.6 mph52%29.89 "Hg10 mi
8:30 PM66 °FSunny.8 mph49%29.89 "Hg10 mi
8:00 PM68 °FSunny.13 mph43%29.89 "Hg10 mi
7:30 PM70 °FSunny.13 mph40%29.92 "Hg10 mi
7:00 PM70 °FSunny.10 mph40%29.92 "Hg10 mi
6:30 PM70 °FSunny.10 mph38%29.95 "Hg10 mi
6:00 PM70 °FPassing clouds.10 mph38%29.95 "HgN/A
5:30 PM70 °FPassing clouds.10 mph38%29.95 "HgN/A
5:00 PM68 °FPassing clouds.10 mph40%29.98 "HgN/A
4:30 PM70 °FPassing clouds.6 mph38%29.98 "HgN/A
4:00 PM70 °FPassing clouds.10 mph38%30.01 "HgN/A
3:30 PM68 °FSunny.6 mph40%30.01 "Hg10 mi
3:00 PM66 °FPassing clouds.6 mph40%30.04 "HgN/A
2:30 PM68 °FSunny.1 mph38%30.04 "Hg10 mi
2:00 PM64 °FSunny.6 mph43%30.07 "Hg10 mi
1:30 PM64 °FSunny.3 mph46%30.07 "Hg10 mi
1:00 PM66 °FSunny.6 mph43%30.07 "Hg10 mi
12:30 PM64 °FPassing clouds.6 mph46%30.09 "HgN/A
12:00 PM63 °FSunny.3 mph49%30.09 "Hg10 mi
11:30 AM63 °FScattered clouds.3 mph49%30.09 "HgN/A
11:00 AM63 °FScattered clouds.3 mph52%30.12 "HgN/A
10:30 AM61 °FPartly sunny.3 mph52%30.12 "HgN/A
10:00 AM59 °FPartly sunny.3 mph55%30.15 "HgN/A
9:30 AM59 °FScattered clouds.3 mph59%30.15 "HgN/A
9:00 AM57 °FScattered clouds.1 mph67%30.15 "HgN/A
8:30 AM54 °FPassing clouds.1 mph100%30.15 "HgN/A
8:00 AM48 °FFog.1 mph100%30.15 "Hg3 mi
Weather by CustomWeather, © 2016

See weather overviewHow to use our weather pages